カタログに戻る

STARLINK-30785

運用中通信VLEO
NORAD 58191·PAYLOAD·🇺🇸 United States

打ち上げ Oct 30, 2023 から Cape Canaveral Space Force Station

Loading…

次のパス (今後24時間)

TLE

最新Source: CelesTrak SupGP

元期: Sep 14, 2026, 22:10 UTC

1 58191C 23167S   26257.92409722 -.00066869  00000+0 -24220-2 0  2575
2 58191  43.0007 154.8390 0001470 271.7369 117.4263 15.27610753    19

AllMySatでSTARLINK-30785をリアルタイム追跡

Download on the App Store